EW5035 Weather Reports


Display with metric or nautical units.
time (UTC)temp
F
wind
direction
speed
MPH
gust
MPH
rain 1hr
in
rain 24hr
in
rain mn
in
humidity
%
barometer
mb
20260507200536 68 223 10.0 19.0 0.00 0.00 0.00 41 1016.0
20260507195531 68 213 10.0 21.0 0.00 0.00 0.00 40 1016.0
20260507195033 68 215 14.0 21.0 0.00 0.00 0.00 39 1016.0
20260507194541 68 212 11.0 18.0 0.00 0.00 0.00 42 1016.0
20260507194032 68 210 11.0 20.0 0.00 0.00 0.00 42 1016.0
20260507193532 68 186 12.0 20.0 0.00 0.00 0.00 41 1016.0
20260507193050 68 190 10.0 18.0 0.00 0.00 0.00 42 1015.9
20260507192534 67 192 11.0 21.0 0.00 0.00 0.00 43 1016.1
20260507192039 67 202 10.0 21.0 0.00 0.00 0.00 42 1016.0
20260507191544 67 196 12.0 19.0 0.00 0.00 0.00 42 1016.0
20260507191035 67 206 10.0 19.0 0.00 0.00 0.00 43 1016.1
20260507190535 66 206 11.0 18.0 0.00 0.00 0.00 43 1016.1
20260507190047 66 222 10.0 21.0 0.00 0.00 0.00 44 1016.2
20260507185534 66 228 12.0 27.0 0.00 0.00 0.00 45 1016.2
20260507185031 66 228 16.0 27.0 0.00 0.00 0.00 45 1016.4
20260507184546 65 225 11.0 23.0 0.00 0.00 0.00 48 1016.3
20260507184031 65 221 16.0 22.0 0.00 0.00 0.00 47 1016.4
20260507183531 65 211 12.0 23.0 0.00 0.00 0.00 49 1016.3
20260507183038 65 181 11.0 23.0 0.00 0.00 0.00 50 1016.2
20260507182531 65 167 10.0 19.0 0.00 0.00 0.00 49 1016.3
20260507182031 65 196 12.0 19.0 0.00 0.00 0.00 50 1016.3
20260507181546 65 185 10.0 22.0 0.00 0.00 0.00 51 1016.2
20260507181034 64 190 14.0 22.0 0.00 0.00 0.00 52 1016.3
20260507180540 64 188 11.0 21.0 0.00 0.00 0.00 53 1016.3
20260507180049 63 190 12.0 22.0 0.00 0.00 0.00 55 1016.3
20260507175537 64 178 15.0 22.0 0.00 0.00 0.00 55 1016.3
20260507175033 64 174 12.0 20.0 0.00 0.00 0.00 56 1016.2
20260507174545 64 172 10.0 20.0 0.00 0.00 0.00 55 1016.4
20260507174034 64 175 8.0 18.0 0.00 0.00 0.00 57 1016.4
20260507173532 63 175 12.0 19.0 0.00 0.00 0.00 56 1016.5
20260507173044 62 171 13.0 21.0 0.00 0.00 0.00 60 1016.5
20260507172531 62 169 13.0 21.0 0.00 0.00 0.00 60 1016.6
20260507172030 61 173 13.0 20.0 0.00 0.00 0.00 60 1016.6
20260507171543 62 168 14.0 19.0 0.00 0.00 0.00 60 1016.6
20260507171031 61 171 11.0 18.0 0.00 0.00 0.00 61 1016.6
20260507170531 61 173 9.0 19.0 0.00 0.00 0.00 62 1016.7
20260507170055 61 173 13.0 19.0 0.00 0.00 0.00 62 1016.7
20260507165530 60 180 10.0 17.0 0.00 0.00 0.00 64 1016.7
20260507165034 61 181 11.0 18.0 0.00 0.00 0.00 63 1016.8
20260507164557 60 182 11.0 20.0 0.00 0.00 0.00 65 1016.7
20260507164034 60 178 13.0 20.0 0.00 0.00 0.00 66 1016.7
20260507163534 60 169 9.0 18.0 0.00 0.00 0.00 66 1016.6
20260507163044 60 169 12.0 18.0 0.00 0.00 0.00 66 1016.5
20260507162534 60 171 12.0 16.0 0.00 0.00 0.00 66 1016.5
20260507162034 60 171 12.0 16.0 0.00 0.00 0.00 66 1016.5
20260507161545 60 171 8.0 18.0 0.00 0.00 0.00 67 1016.6
20260507161034 59 172 11.0 18.0 0.00 0.00 0.00 68 1016.5
20260507160534 59 182 9.0 15.0 0.00 0.00 0.00 70 1016.5
20260507160054 58 185 9.0 15.0 0.00 0.00 0.00 69 1016.6
20260507155533 58 186 8.0 19.0 0.00 0.00 0.00 71 1016.7
20260507155037 58 186 11.0 19.0 0.00 0.00 0.00 70 1016.7
20260507154553 58 178 9.0 18.0 0.00 0.00 0.00 73 1016.4
20260507154036 57 178 10.0 18.0 0.00 0.00 0.00 72 1016.5
20260507153533 57 178 14.0 18.0 0.00 0.00 0.00 73 1016.5
20260507153045 57 159 11.0 19.0 0.00 0.00 0.00 74 1016.4
20260507152534 56 159 12.0 20.0 0.00 0.00 0.00 75 1016.4
20260507152035 56 159 14.0 20.0 0.00 0.00 0.00 75 1016.2
20260507151545 56 167 13.0 20.0 0.00 0.00 0.00 75 1016.4
20260507151034 56 168 13.0 21.0 0.00 0.00 0.00 76 1016.5
20260507150535 56 167 14.0 21.0 0.00 0.00 0.00 76 1016.4
20260507150045 55 164 13.0 17.0 0.00 0.00 0.00 77 1016.5
20260507145534 55 164 12.0 17.0 0.00 0.00 0.00 77 1016.4
20260507145035 55 164 10.0 17.0 0.00 0.00 0.00 78 1016.4
20260507144542 55 164 11.0 14.0 0.00 0.00 0.00 78 1016.4
20260507144034 55 164 8.0 16.0 0.00 0.00 0.00 79 1016.2
20260507143535 54 164 6.0 16.0 0.00 0.00 0.00 79 1016.2
20260507143048 54 164 11.0 16.0 0.00 0.00 0.00 80 1016.1
20260507142535 54 164 11.0 16.0 0.00 0.00 0.00 80 1016.1
20260507142035 54 164 9.0 17.0 0.00 0.00 0.00 80 1016.0
20260507141552 54 164 10.0 17.0 0.00 0.00 0.00 81 1016.1
20260507141035 53 164 10.0 14.0 0.00 0.00 0.00 81 1016.0
20260507140535 53 164 8.0 14.0 0.00 0.00 0.00 81 1016.0
20260507140044 53 164 10.0 14.0 0.00 0.00 0.00 82 1015.9
20260507135534 53 164 8.0 16.0 0.00 0.00 0.00 82 1015.9
20260507135034 52 164 7.0 16.0 0.00 0.00 0.00 82 1016.0
20260507134550 52 164 9.0 14.0 0.00 0.00 0.00 82 1015.9
20260507134035 52 164 10.0 14.0 0.00 0.00 0.00 82 1015.9
20260507133534 52 164 11.0 16.0 0.00 0.00 0.00 82 1015.8
20260507133101 52 164 11.0 17.0 0.00 0.00 0.00 82 1015.7
20260507132536 52 164 13.0 17.0 0.00 0.00 0.00 83 1015.7
20260507132033 52 164 12.0 16.0 0.00 0.00 0.00 84 1015.7
20260507131551 51 164 10.0 16.0 0.00 0.00 0.00 84 1015.6
20260507131036 51 164 11.0 16.0 0.00 0.00 0.00 84 1015.5
20260507130535 51 164 11.0 16.0 0.00 0.00 0.00 83 1015.4
20260507130103 51 164 12.0 16.0 0.00 0.00 0.00 83 1015.5
20260507125534 51 164 11.0 17.0 0.00 0.00 0.00 83 1015.3
20260507125034 51 164 12.0 18.0 0.00 0.00 0.00 83 1015.2
20260507124544 51 164 14.0 18.0 0.00 0.00 0.00 83 1015.2
20260507124034 52 164 13.0 18.0 0.00 0.00 0.00 82 1015.3
20260507123531 52 164 14.0 19.0 0.00 0.00 0.00 83 1015.2
20260507123044 52 164 15.0 19.0 0.00 0.00 0.00 82 1015.1
20260507122534 51 166 14.0 20.0 0.00 0.00 0.00 83 1015.4
20260507122035 52 166 15.0 21.0 0.00 0.00 0.00 82 1015.4
20260507121545 52 166 15.0 21.0 0.00 0.00 0.00 83 1015.2
20260507121037 52 166 15.0 22.0 0.00 0.00 0.00 83 1015.3
20260507120534 52 166 18.0 22.0 0.00 0.00 0.00 83 1015.2
20260507120056 51 179 9.0 17.0 0.00 0.00 0.00 83 1015.3
20260507115535 51 179 11.0 17.0 0.00 0.00 0.00 83 1015.2
20260507115034 51 179 8.0 17.0 0.00 0.00 0.00 82 1015.1
20260507114627 51 179 10.0 17.0 0.00 0.00 0.00 82 1015.2
20260507114035 51 179 12.0 17.0 0.00 0.00 0.00 83 1015.1
20260507113534 51 179 9.0 15.0 0.00 0.00 0.00 82 1015.1
20260507113045 51 180 10.0 14.0 0.00 0.00 0.00 83 1015.2
20260507112535 51 183 7.0 12.0 0.00 0.00 0.00 83 1015.2
20260507112036 51 183 3.0 16.0 0.00 0.00 0.00 83 1015.3
20260507111543 52 183 5.0 16.0 0.00 0.00 0.00 83 1015.4
20260507111033 52 183 9.0 16.0 0.00 0.00 0.00 83 1015.1
20260507110534 51 171 3.0 8.0 0.00 0.00 0.00 83 1015.1
20260507110045 51 171 1.0 12.0 0.00 0.00 0.00 82 1015.2
20260507105551 51 0 4.0 15.0 0.00 0.00 0.00 82 1015.5
20260507105037 51 171 8.0 15.0 0.00 0.00 0.00 82 1015.2
20260507104547 51 171 7.0 15.0 0.00 0.00 0.00 81 1015.0
20260507104035 52 171 7.0 15.0 0.00 0.00 0.00 81 1015.0
20260507103534 52 171 10.0 16.0 0.00 0.00 0.00 80 1014.9
20260507103046 52 171 11.0 18.0 0.00 0.00 0.00 79 1014.8
20260507102531 52 171 13.0 18.0 0.00 0.00 0.00 79 1014.8
20260507102038 53 178 9.0 14.0 0.00 0.00 0.00 76 1014.9
20260507101546 54 179 9.0 15.0 0.00 0.00 0.00 71 1014.8
20260507101034 55 183 11.0 18.0 0.00 0.00 0.00 70 1014.9
20260507100535 55 183 12.0 18.0 0.00 0.00 0.00 69 1014.7
20260507100043 55 183 12.0 17.0 0.00 0.00 0.00 68 1014.7
20260507095534 55 183 11.0 20.0 0.00 0.00 0.00 69 1014.6
20260507095034 56 183 14.0 20.0 0.00 0.00 0.00 69 1014.6
20260507094539 55 180 15.0 19.0 0.00 0.00 0.00 71 1014.6
20260507094034 54 172 14.0 20.0 0.00 0.00 0.00 75 1014.6
20260507093534 53 172 14.0 20.0 0.00 0.00 0.00 76 1014.6
20260507093049 53 172 13.0 17.0 0.00 0.00 0.00 75 1014.6
20260507092535 54 172 9.0 16.0 0.00 0.00 0.00 74 1014.7
20260507092035 54 172 11.0 19.0 0.00 0.00 0.00 74 1014.7
20260507091547 55 172 14.0 19.0 0.00 0.00 0.00 73 1014.8
20260507091034 54 172 14.0 19.0 0.00 0.00 0.00 73 1014.6
20260507090537 55 172 14.0 20.0 0.00 0.00 0.00 73 1014.6
20260507090048 55 172 12.0 20.0 0.00 0.00 0.00 72 1014.5
20260507085536 55 172 14.0 17.0 0.00 0.00 0.00 72 1014.5
20260507085034 55 172 13.0 17.0 0.00 0.00 0.00 72 1014.7
20260507084553 55 172 11.0 15.0 0.00 0.00 0.00 72 1014.7
20260507084033 55 172 10.0 14.0 0.00 0.00 0.00 71 1014.7
20260507083531 55 172 9.0 14.0 0.00 0.00 0.00 71 1014.8
20260507083041 56 172 8.0 13.0 0.00 0.00 0.00 70 1014.7
20260507082534 56 172 9.0 14.0 0.00 0.00 0.00 70 1014.7
20260507082034 56 172 9.0 16.0 0.00 0.00 0.00 70 1014.8
20260507081540 56 172 9.0 16.0 0.00 0.00 0.00 69 1014.7
20260507081037 56 172 11.0 15.0 0.00 0.00 0.00 70 1014.9
20260507080535 56 172 10.0 16.0 0.00 0.00 0.00 70 1014.6
20260507080045 56 172 11.0 18.0 0.00 0.00 0.00 69 1014.5
20260507075534 56 172 14.0 18.0 0.00 0.00 0.00 70 1014.4
20260507075034 56 172 13.0 16.0 0.00 0.00 0.00 69 1014.5
20260507074554 57 172 10.0 16.0 0.00 0.00 0.00 67 1014.6
20260507074034 58 172 10.0 15.0 0.00 0.00 0.00 66 1014.7
20260507073534 58 172 10.0 17.0 0.00 0.00 0.00 66 1014.6
20260507073046 58 172 12.0 20.0 0.00 0.00 0.00 65 1014.6
20260507072531 59 172 14.0 21.0 0.00 0.00 0.00 64 1014.5
20260507072034 58 172 13.0 21.0 0.00 0.00 0.00 64 1014.4
20260507071548 58 188 11.0 15.0 0.00 0.00 0.00 65 1014.2
20260507071043 58 203 10.0 17.0 0.00 0.00 0.00 62 1014.2
20260507070535 61 208 8.0 17.0 0.00 0.00 0.00 53 1014.1
20260507070055 62 208 13.0 17.0 0.00 0.00 0.00 48 1014.1
20260507065536 62 200 9.0 20.0 0.00 0.00 0.00 51 1014.2
20260507065034 62 200 13.0 20.0 0.00 0.00 0.00 51 1014.2
20260507064546 61 208 9.0 16.0 0.00 0.00 0.00 53 1014.2
20260507064034 62 209 10.0 20.0 0.00 0.00 0.00 50 1014.2
20260507063534 63 209 12.0 20.0 0.00 0.00 0.00 46 1014.1
20260507063050 63 209 14.0 20.0 0.00 0.00 0.00 45 1013.9
20260507062535 63 205 13.0 23.0 0.00 0.00 0.00 45 1013.8
20260507062035 64 204 16.0 23.0 0.00 0.00 0.00 44 1013.8
20260507061549 63 198 13.0 25.0 0.00 0.00 0.00 46 1013.8
20260507061031 63 192 15.0 25.0 0.00 0.00 0.00 46 1013.8
20260507060534 62 183 9.0 24.0 0.00 0.00 0.00 47 1013.8
20260507060050 63 183 13.0 24.0 0.00 0.00 0.00 46 1013.8
20260507055534 64 187 13.0 23.0 0.00 0.00 0.00 44 1013.8
20260507055034 63 202 12.0 19.0 0.00 0.00 0.00 45 1013.8
20260507054539 63 202 11.0 19.0 0.00 0.00 0.00 45 1013.8
20260507054034 62 202 12.0 17.0 0.00 0.00 0.00 47 1013.6
20260507053535 62 219 10.0 15.0 0.00 0.00 0.00 47 1013.7
20260507053046 63 222 9.0 14.0 0.00 0.00 0.00 46 1013.7
20260507052534 64 223 10.0 14.0 0.00 0.00 0.00 43 1013.7
20260507052034 65 223 8.0 11.0 0.00 0.00 0.00 42 1013.6
20260507051548 66 223 6.0 9.0 0.00 0.00 0.00 41 1013.5
20260507051031 66 223 3.0 11.0 0.00 0.00 0.00 40 1013.5
20260507050534 67 223 5.0 16.0 0.00 0.00 0.00 39 1013.3
20260507050044 67 223 8.0 19.0 0.00 0.00 0.00 39 1013.3
20260507045531 67 224 12.0 19.0 0.00 0.00 0.00 38 1013.3
20260507045034 66 223 11.0 19.0 0.00 0.00 0.00 39 1013.2
20260507044539 66 221 13.0 19.0 0.00 0.00 0.00 40 1013.1
20260507044035 66 221 10.0 18.0 0.00 0.00 0.00 40 1013.0
20260507043535 66 221 12.0 20.0 0.00 0.00 0.00 40 1013.1
20260507043047 66 221 13.0 20.0 0.00 0.00 0.00 40 1012.9
20260507042537 66 221 11.0 17.0 0.00 0.00 0.00 39 1013.0
20260507042034 67 223 11.0 16.0 0.00 0.00 0.00 37 1012.9
20260507041551 68 225 10.0 19.0 0.00 0.00 0.00 36 1013.0
20260507041034 69 224 11.0 19.0 0.00 0.00 0.00 35 1012.9
20260507040535 69 221 12.0 23.0 0.00 0.00 0.00 34 1012.8
20260507040053 70 220 15.0 23.0 0.00 0.00 0.00 33 1012.7
20260507035534 70 218 15.0 22.0 0.00 0.00 0.00 33 1012.7
20260507035034 69 211 12.0 16.0 0.00 0.00 0.00 34 1012.7
20260507034541 69 209 10.0 16.0 0.00 0.00 0.00 33 1012.6
20260507034035 70 209 10.0 16.0 0.00 0.00 0.00 32 1012.7
20260507033535 70 209 7.0 15.0 0.00 0.00 0.00 31 1012.6
20260507033040 70 207 8.0 15.0 0.00 0.00 0.00 31 1012.5
20260507032535 70 206 8.0 14.0 0.00 0.00 0.00 31 1012.5
20260507032033 70 205 8.0 13.0 0.00 0.00 0.00 31 1012.4
20260507031538 71 205 8.0 13.0 0.00 0.00 0.00 32 1012.4
20260507031038 71 204 8.0 12.0 0.00 0.00 0.00 32 1012.3
20260507030535 71 204 8.0 12.0 0.00 0.00 0.00 33 1012.2
20260507030043 71 204 9.0 12.0 0.00 0.00 0.00 34 1012.2
20260507025534 71 204 7.0 12.0 0.00 0.00 0.00 38 1012.0
20260507025034 72 204 9.0 12.0 0.00 0.00 0.00 35 1012.1
20260507024550 72 204 8.0 12.0 0.00 0.00 0.00 39 1012.1
20260507024037 72 204 9.0 12.0 0.00 0.00 0.00 41 1012.0
20260507023536 72 204 7.0 10.0 0.00 0.00 0.00 47 1012.0
20260507023049 73 204 8.0 10.0 0.00 0.00 0.00 46 1012.1
20260507022538 73 204 7.0 11.0 0.00 0.00 0.00 47 1012.1
20260507022031 73 204 8.0 12.0 0.00 0.00 0.00 48 1012.2
20260507021544 74 204 9.0 12.0 0.00 0.00 0.00 48 1012.2
20260507021039 74 204 9.0 14.0 0.00 0.00 0.00 46 1012.2
20260507020535 74 204 10.0 14.0 0.00 0.00 0.00 49 1012.2
20260507020059 74 204 11.0 15.0 0.00 0.00 0.00 48 1012.2
20260507015534 74 204 10.0 15.0 0.00 0.00 0.00 49 1012.2
20260507015034 74 204 12.0 16.0 0.00 0.00 0.00 49 1012.1
20260507014540 74 204 12.0 16.0 0.00 0.00 0.00 48 1012.0
20260507014035 74 204 11.0 17.0 0.00 0.00 0.00 49 1012.0
20260507013535 74 204 11.0 17.0 0.00 0.00 0.00 50 1012.0
20260507013050 74 204 11.0 17.0 0.00 0.00 0.00 50 1011.9
20260507012534 74 205 10.0 14.0 0.00 0.00 0.00 49 1012.0
20260507012031 74 205 9.0 15.0 0.00 0.00 0.00 50 1012.0
20260507011545 74 205 11.0 15.0 0.00 0.00 0.00 49 1011.9
20260507011036 75 205 11.0 15.0 0.00 0.00 0.00 49 1012.0
20260507010534 75 205 10.0 15.0 0.00 0.00 0.00 49 1012.0
20260507010042 75 205 11.0 14.0 0.00 0.00 0.00 48 1012.1
20260507005534 76 205 9.0 13.0 0.00 0.00 0.00 47 1012.0
20260507005036 76 205 9.0 14.0 0.00 0.00 0.00 46 1011.9
20260507004551 76 205 9.0 14.0 0.00 0.00 0.00 45 1011.9
20260507004036 76 205 10.0 14.0 0.00 0.00 0.00 44 1011.9
20260507003534 76 205 9.0 14.0 0.00 0.00 0.00 43 1011.9
20260507003051 77 205 9.0 17.0 0.00 0.00 0.00 41 1011.8
20260507002534 77 206 11.0 17.0 0.00 0.00 0.00 40 1011.7
20260507002035 77 205 11.0 16.0 0.00 0.00 0.00 38 1011.8
20260507001547 77 195 10.0 16.0 0.00 0.00 0.00 37 1011.8
20260507001034 78 195 9.0 18.0 0.00 0.00 0.00 39 1011.6
20260507000531 78 195 9.0 18.0 0.00 0.00 0.00 40 1011.7
20260507000046 78 202 10.0 19.0 0.00 0.00 0.00 40 1011.6
20260506235533 78 198 13.0 19.0 0.00 0.00 0.00 38 1011.7
20260506235035 78 198 10.0 18.0 0.00 0.00 0.00 38 1011.7
20260506234544 78 198 12.0 18.0 0.00 0.00 0.00 37 1011.8
20260506234035 78 202 12.0 18.0 0.00 0.00 0.00 36 1011.7
20260506233535 78 197 9.0 17.0 0.00 0.00 0.00 38 1011.7
20260506233053 78 197 13.0 20.0 0.00 0.00 0.00 36 1011.6
20260506232534 78 197 13.0 20.0 0.00 0.00 0.00 34 1011.8
20260506232034 78 213 12.0 19.0 0.00 0.00 0.00 35 1011.8
20260506231554 78 219 13.0 19.0 0.00 0.00 0.00 37 1011.9
20260506231034 78 216 13.0 23.0 0.00 0.00 0.00 37 1011.8
20260506230534 78 219 12.0 23.0 0.00 0.00 0.00 37 1011.9
20260506230052 78 217 16.0 22.0 0.00 0.00 0.00 35 1011.9
20260506225534 78 203 12.0 21.0 0.00 0.00 0.00 36 1012.0
20260506225034 78 202 14.0 21.0 0.00 0.00 0.00 37 1012.2
20260506224545 79 202 12.0 19.0 0.00 0.00 0.00 36 1012.2
20260506224037 78 198 13.0 20.0 0.00 0.00 0.00 38 1012.3
20260506223535 78 198 15.0 20.0 0.00 0.00 0.00 37 1012.4
20260506223045 78 209 12.0 22.0 0.00 0.00 0.00 37 1012.3
20260506222535 78 214 14.0 22.0 0.00 0.00 0.00 38 1012.5
20260506222034 78 223 15.0 23.0 0.00 0.00 0.00 37 1012.6
20260506221541 78 221 17.0 23.0 0.00 0.00 0.00 37 1012.6
20260506221035 78 221 15.0 22.0 0.00 0.00 0.00 37 1012.7
20260506220535 78 217 12.0 22.0 0.00 0.00 0.00 37 1012.7
20260506220043 78 222 13.0 22.0 0.00 0.00 0.00 38 1012.7
20260506215534 78 214 11.0 19.0 0.00 0.00 0.00 37 1012.8
20260506215036 78 211 13.0 21.0 0.00 0.00 0.00 38 1012.9
20260506214552 78 212 15.0 21.0 0.00 0.00 0.00 36 1012.9
20260506214035 78 215 9.0 19.0 0.00 0.00 0.00 39 1012.9
20260506213535 78 214 14.0 19.0 0.00 0.00 0.00 37 1013.1
20260506213101 78 213 10.0 19.0 0.00 0.00 0.00 37 1013.1
20260506212534 78 215 12.0 18.0 0.00 0.00 0.00 36 1013.1
20260506212034 77 219 11.0 22.0 0.00 0.00 0.00 38 1013.2
20260506211547 77 219 13.0 22.0 0.00 0.00 0.00 37 1013.2
20260506211034 77 215 12.0 22.0 0.00 0.00 0.00 41 1013.2
20260506210534 76 221 14.0 22.0 0.00 0.00 0.00 39 1013.2
20260506210045 76 218 13.0 19.0 0.00 0.00 0.00 40 1013.2
20260506205535 76 221 14.0 19.0 0.00 0.00 0.00 37 1013.5
20260506205035 77 209 10.0 21.0 0.00 0.00 0.00 38 1013.5
20260506204541 76 205 11.0 21.0 0.00 0.00 0.00 38 1013.4
20260506204034 76 213 13.0 24.0 0.00 0.00 0.00 37 1013.3
20260506203535 77 201 12.0 24.0 0.00 0.00 0.00 37 1013.3
20260506203043 76 213 14.0 20.0 0.00 0.00 0.00 40 1013.3
20260506202539 76 206 11.0 21.0 0.00 0.00 0.00 39 1013.5
20260506202035 76 209 14.0 21.0 0.00 0.00 0.00 41 1013.7
20260506201547 75 208 14.0 21.0 0.00 0.00 0.00 41 1013.7
20260506201038 75 209 13.0 22.0 0.00 0.00 0.00 42 1013.8